Regional Weather Roundup
Issued by NWS Jackson, KY

Home | Current Version | Previous Version | Graphics & Text | Print | Product List | Glossary On
Versions: 1 2 3 4 5 6 7 8 9 10 11 12 13 14 15 16 17 18 19 20 21 22 23 24 25 26 27 28 29 30 31 32 33 34 35 36 37 38 39 40 41 42 43 44 45 46 47 48 49 50
000
ASUS43 KJKL 210810
RWRJKL

EAST KENTUCKY HOURLY WEATHER ROUNDUP
NATIONAL WEATHER SERVICE JACKSON KY
400 AM EDT SUN SEP 21 2014

NOTE: "FAIR" INDICATES FEW OR NO CLOUDS BELOW 12,000 FEET WITH
NO SIGNIFICANT WEATHER AND/OR OBSTRUCTIONS TO VISIBILITY.

* THESE REPORTS ARE NOT UNDER NWS QUALITY CONTROL AND MAY NOT
  REPORT WEATHER SUCH AS PRECIPITATION AND FOG.

KYZ079-080-083-085-087-088-110-112-115-119-120-210900
...EASTERN KENTUCKY...

CITY           SKY/WX    TMP DP  RH WIND       PRES   REMARKS
JACKSON        CLEAR     65  61  87 CALM      29.96F
LONDON         CLEAR     64  60  87 S5        29.98F
SOMERSET*      CLEAR     64  64 100 CALM      29.98S
MONTICELLO*    CLEAR     63  62  96 CALM      29.99F
WILLIAMSBURG*  CLEAR     61  61 100 SE6       29.98F
MIDDLESBORO*   CLOUDY    59  59 100 CALM      30.01F FOG
HARLAN APT*    CLOUDY    61  61 100 MISG      30.02F VSB<1/4
HAZARD APT*    SUNNY     64  63  94 CALM      29.96
BLACK MTN*       N/A     61  57  88 S6          N/A
PIKEVILLE APT* CLEAR     63  61  94 S5        29.96F
BIG SANDY*     MOSUNNY   65  63  93 S5        29.95F
MOREHEAD APT*  SUNNY     68  63  83 S9        29.94F
$$

KYZ035-036-041-042-044-050-067-078-099-210900
...CENTRAL KENTUCKY...

CITY           SKY/WX    TMP DP  RH WIND       PRES   REMARKS
MT STERLING*   CLEAR     64  63  94 W7        29.94F
FLEMING/MASON* CLEAR     66  63  88 SW7       29.90F
DANVILLE*      CLEAR     64  63  94 S7        29.95F
RICHMOND*      CLEAR     68  61  77 SW7       29.93F
LEXINGTON      CLEAR     69  64  84 S8        29.92F
FRANKFORT      CLEAR     68  64  87 SW7       29.90F
$$

KYZ091>093-OHZ055-061-077-WVZ005-015-034-035-042-210900
...SOUTHERN OHIO/WEST VIRGINIA...

CITY           SKY/WX    TMP DP  RH WIND       PRES   REMARKS
COVINGTON      MOCLDY    70  64  81 SW8       29.87S
COLUMBUS       MOCLDY    72  63  73 SW9       29.83F
DAYTON         CLOUDY    72  65  78 SW16G25   29.83F
WILMINGTON     PTCLDY    67  63  87 SW13      29.85F
HUNTINGTON     CLEAR     65  63  93 S7        29.91F
CHARLESTON     CLEAR     61  61 100 SE3       29.92F
PINEVILLE*     CLOUDY    59  59 100 MISG      30.04F FOG
BECKLEY        PTCLDY    57  54  89 CALM      30.01F
BLUEFIELD      CLEAR     59  53  80 SW5       30.04F
$$

VAZ002-007-008-TNZ017-027-036-066-071-210900
...SOUTHWEST VIRGINIA/EAST TENNESSEE...

CITY           SKY/WX    TMP DP  RH WIND       PRES   REMARKS
WISE*          PTCLDY    59  59 100 SW6       30.05F
JONESVILLE*    MOSUNNY   57  57 100 CALM      30.03F
ABINGDON*      CLEAR     57  56  95 CALM      30.03S
BRISTOL        MOCLDY    56  53  90 CALM      30.02S
KNOXVILLE      MOCLDY    65  61  87 W5        30.00F
OAK RIDGE      CLEAR     64  61  90 CALM      30.02F
CROSSVILLE     CLEAR     64  59  83 SW3       30.05F
NASHVILLE      PTCLDY    67  64  90 S3        29.97F
$$

...KEY TO REMARKS...
VSB - VISIBILITY IN MILES
WCI - WIND CHILL INDEX
HX  - HEAT INDEX

$$



USA.gov is the U.S. government's official web portal to all federal, state and local government web resources and services.